TimeEST,TemperatureF,Dew PointF,Humidity,Sea Level PressureIn,VisibilityMPH,Wind Direction,Wind SpeedMPH,Gust SpeedMPH,PrecipitationIn,Events,Conditions,WindDirDegrees,DateUTC
12:54 AM,15.1,-0.0,51,30.12,10.0,Variable,3.5,-,N/A,,Mostly Cloudy,0,2013-02-02 05:54:00
1:54 AM,14.0,-0.9,52,30.14,10.0,WSW,5.8,-,N/A,,Clear,250,2013-02-02 06:54:00
2:54 AM,14.0,-2.0,49,30.15,10.0,Variable,5.8,-,N/A,,Clear,0,2013-02-02 07:54:00
3:54 AM,12.9,-2.0,51,30.17,10.0,Calm,Calm,-,N/A,,Clear,0,2013-02-02 08:54:00
4:54 AM,12.0,-2.0,53,30.19,10.0,Calm,Calm,-,N/A,,Clear,0,2013-02-02 09:54:00
5:54 AM,10.0,-2.0,58,30.20,10.0,North,3.5,-,N/A,,Clear,350,2013-02-02 10:54:00
7:54 AM,8.1,1.0,73,30.21,10.0,Calm,Calm,-,N/A,,Clear,0,2013-02-02 12:54:00
8:54 AM,12.0,-0.0,59,30.22,10.0,Calm,Calm,-,N/A,,Clear,0,2013-02-02 13:54:00
9:54 AM,15.1,-0.0,51,30.20,10.0,Calm,Calm,-,N/A,,Clear,0,2013-02-02 14:54:00
10:54 AM,18.0,1.0,48,30.18,10.0,Variable,3.5,-,N/A,,Mostly Cloudy,0,2013-02-02 15:54:00
11:54 AM,19.9,3.0,48,30.15,10.0,West,6.9,-,N/A,,Mostly Cloudy,260,2013-02-02 16:54:00
12:54 PM,21.0,3.9,48,30.12,10.0,SSW,8.1,-,N/A,,Mostly Cloudy,210,2013-02-02 17:54:00
1:54 PM,21.9,3.9,46,30.08,10.0,SSW,3.5,-,N/A,,Overcast,210,2013-02-02 18:54:00
2:54 PM,24.1,3.9,42,30.06,10.0,Calm,Calm,-,N/A,,Overcast,0,2013-02-02 19:54:00
3:54 PM,23.0,6.1,48,30.05,10.0,SE,6.9,-,N/A,,Overcast,140,2013-02-02 20:54:00
4:54 PM,23.0,8.1,53,30.03,10.0,Calm,Calm,-,N/A,,Overcast,0,2013-02-02 21:54:00
5:54 PM,21.9,9.0,58,30.04,10.0,Calm,Calm,-,N/A,,Overcast,0,2013-02-02 22:54:00
6:54 PM,19.9,10.0,65,30.04,10.0,Calm,Calm,-,N/A,,Partly Cloudy,0,2013-02-02 23:54:00
7:54 PM,18.0,10.0,71,30.05,10.0,Calm,Calm,-,N/A,,Overcast,0,2013-02-03 00:54:00
8:54 PM,19.0,10.9,71,30.05,10.0,Calm,Calm,-,N/A,,Overcast,0,2013-02-03 01:54:00
9:54 PM,19.0,10.9,71,30.05,8.0,Calm,Calm,-,N/A,,Overcast,0,2013-02-03 02:54:00
10:54 PM,19.0,12.0,74,30.05,10.0,Calm,Calm,-,N/A,,Overcast,0,2013-02-03 03:54:00
11:54 PM,19.0,12.0,74,30.05,10.0,Calm,Calm,-,N/A,,Overcast,0,2013-02-03 04:54:00